Regional Weather Roundup
Issued by NWS Upton, NY

Current Version | Previous Version | Graphics & Text | Print | Product List | Glossary Off
Versions: 1 2 3 4 5 6 7 8 9 10 11 12 13 14 15 16 17 18 19 20 21 22 23 24 25 26 27 28 29 30 31 32 33 34 35 36 37 38 39 40 41 42 43 44 45 46 47 48 49 50

922
ASUS41 KOKX 302205
RWROKX

REGIONAL WEATHER ROUNDUP
NATIONAL WEATHER SERVICE NEW YORK NY
600 PM EDT MON MAY 30 2016

NOTE: "FAIR" INDICATES FEW OR NO CLOUDS BELOW 12,000 FEET WITH NO
SIGNIFICANT WEATHER AND/OR OBSTRUCTIONS TO VISIBILITY.

NYZ071-072-176-178-NJZ106-104-302300-
NEW YORK CITY METRO AREA


CITY           SKY/WX    TMP DP  RH WIND       PRES   REMARKS
CENTRAL PARK   CLOUDY    76  66  71 VRB7      29.95S
LAGUARDIA APRT CLOUDY    78  73  84 S13       29.92S
KENNEDY INTL   CLOUDY    69  67  93 S15       29.95R
NEWARK/LIBERTY CLOUDY    79  67  66 S10       29.92S
BRNX BOT. GARD   N/A     75  68  78 E5        29.94F
TETERBORO      PTSUNNY   79  65  62 S10       29.91S
$$

NYZ177-179-078>081-302300-
LONG ISLAND NEW YORK

CITY           SKY/WX    TMP DP  RH WIND       PRES   REMARKS
FARMINGDALE    CLOUDY    68  65  90 SW13      29.96R
ISLIP          FOG       67  65  93 SW12      29.96R VSB 1
SHIRLEY        FOG       67  65  93 S9        29.97S VSB 1
RIVERHEAD        N/A     68  66  94 SW1       29.95R
WESTHAMPTON    FOG       64  63  96 SW9       29.99R VSB 1/2
EAST HAMPTON   FOG       63  63  99 SW7       29.96S VSB 1/2
MONTAUK POINT    N/A     64  64 100 SW9       29.97F
$$

NYZ052-065-067-302300-
HUDSON VALLEY

CITY           SKY/WX    TMP DP  RH WIND       PRES   REMARKS
WHITE PLAINS   CLOUDY    74  69  85 S8        29.93S
NEWBURGH       NOT AVBL
MONTGOMERY     MOSUNNY   83  62  49 S10       29.89S
POUGHKEEPSIE   MOSUNNY   83  68  60 SE8       29.88S
ALBANY         CLOUDY    81  65  58 S8        29.85S THUNDER
$$

NJZ001-105-106-008-010-013-015-019>022-104-302300-
NEW JERSEY

CITY           SKY/WX    TMP DP  RH WIND       PRES   REMARKS
NEWARK/LIBERTY CLOUDY    79  67  66 S10       29.92S
TETERBORO      PTSUNNY   79  65  62 S10       29.91S
CALDWELL       PTSUNNY   80  65  59 SW6       29.92S
MORRISTOWN     PTSUNNY   81  68  65 SW9       29.93R
SOMERVILLE     CLOUDY    79  68  69 S10       29.91S
SUSSEX         CLOUDY    83  62  49 SW8       29.91S
ANDOVER          N/A     81  64  56 SW9       29.92F
TRENTON        CLOUDY    77  68  73 S8        29.93S
MILLVILLE      LGT RAIN  70  68  93 VRB5      29.96F
ATLANTIC CITY  LGT RAIN  71  69  93 S8        29.97S
WRIGHTSTOWN    PTSUNNY   74  70  88 S12       29.93S
TOMS RIVER     CLOUDY    72  66  83 S9        29.97S
BELMAR         CLOUDY    74  71  91 S9        29.97R
$$

PAZ047>061-062-071-302300-
EASTERN PENNSYLVANIA

CITY           SKY/WX    TMP DP  RH WIND       PRES   REMARKS
PHILADELPHIA   CLOUDY    75  68  78 S7        29.96R
ALLENTOWN      CLOUDY    83  61  47 S8        29.92S
SCRANTON       CLOUDY    72  63  73 NW12      29.96R
$$

CTZ002-004>006-009-010-012-RIZ004-006-007-MAZ004-011-015-302300-
SOUTHERN NEW ENGLAND
 IN CT

CITY           SKY/WX    TMP DP  RH WIND       PRES   REMARKS
BRADLEY INTL   PTSUNNY   78  67  68 S15       29.89S
HARTFORD       CLOUDY    78  68  71 S10       29.91S
DANBURY        CLOUDY    75  68  78 S9        29.94S
WTRBRY/OXFORD  CLOUDY    73  64  73 S10       29.96S
BRIDGEPORT     CLOUDY    72  67  84 S12       29.94R
MERIDEN        CLOUDY    75  68  78 S8        29.93S
NEW HAVEN      CLOUDY    70  67  90 S9        29.95R
CHESTER        CLOUDY    70  68  94 S7        29.96R FOG
GROTON         FOG       62  62 100 SW7       29.95S VSB 1/4
WILLIMANTIC    CLOUDY    75  67  76 S10       29.93S

 IN RI

CITY           SKY/WX    TMP DP  RH WIND       PRES   REMARKS
PROVIDENCE     CLOUDY    72  67  84 S10       29.93F
BLOCK ISLAND   LGT RAIN  62  61  96 SW15      29.97S VSB 1/2
WESTERLY       FOG       64  61  90 SW6       29.96S VSB 1/2

 IN MA

CITY           SKY/WX    TMP DP  RH WIND       PRES   REMARKS
BOSTON         CLOUDY    71  68  90 SW13      29.89S
WORCESTER      CLOUDY    74  64  71 S9        29.93S
WESTFIELD      CLOUDY    80  67  64 S13       29.89S
PROVINCETOWN   FOG       64  63  96 S16G22    29.92F VSB 3/4
NANTUCKET      LGT RAIN  63  61  93 SW13      29.97F VSB 1/2
$$

ANZ330-335-338-340-345-350-353-355-302300-
COASTAL MARINE OBSERVATIONS


STATION/POSITION TIME  SKY/WX   TEMP    WIND        PRES    VSBY  WAVE
                                AIR SEA DIR/SP/G                  HT/PER
                 (UTC)          (F)     (DEG/KT/KT) (MB)    (MI)  (FT/S)
NY HARB ENTRANCE 2050            61 58  190/ 14/ 16 1013.5          3/ 7
20S FIRE ISLAND  2050            63 61  200/ 14/ 16 1014.2          3/ 7
GREAT SOUTH BAY  2130            65 71  240/ 14/ 19   N/A
23 SSW MONTAUK P 2150            61 59  220/ 10/ 12 1014.1          4/ 7
15 E BARNEGAT LI 2122               61                N/A           3/ 7
HUDSON CANYON    2050            62 59              1015.7          3/ 7
KINGS POINT      2100            70 61              1013.2
EXECUTION ROCKS  NOT AVBL
CENTRAL LI SOUND 2100            68     190/ 10/ 12   N/A           0
EASTERN LI SOUND 2100            61 55  200/  8/ 10   N/A
ROBBINS REEF     2100            73     170/ 12/ 12 1012.6
$$


>>>>>>>>>>>>>>>>>>>>>>>>>>>> KEY <<<<<<<<<<<<<<<<<<<<<<<<<<<
>                                                          <
>     SKY/WX - SKY CONDITION/PRESENT WEATHER               <
>     TMP    - TEMPERATURE IN FAHRENHEIT                   <
>     DP     - DEWPOINT IN FAHRENHEIT                      <
>     RH     - RELATIVE HUMIDITY IN PERCENT                <
>     WIND   - DIRECTION AND SPEED IN MPH                  <
>     PRES   - MEAN SEA LEVEL PRESSURE IN INCHES OF HG     <
>     WCI    - WIND CHILL INDEX                            <
>     VSB    - VISIBILITY IN MILES                         <
>     HX     - HEAT INDEX                                  <
>     TC     - TEMPERATURE IN CELSIUS                      <
>     VRB    - VARIABLE WIND DIRECTION                     <
>                                                          <
>>>>>>>>>>>>>>>>>>>>>>>>>>>> KEY <<<<<<<<<<<<<<<<<<<<<<<<<<<






USA.gov is the U.S. government's official web portal to all federal, state and local government web resources and services.